Regional Weather Roundup
Issued by NWS

Home | Current Version | Previous Version | Graphics & Text | Print | Product List | Glossary Off
Versions: 1 2 3 4 5 6 7 8 9 10 11 12 13 14 15 16 17 18 19 20 21 22 23 24 25 26 27 28 29 30 31 32 33 34 35 36 37 38 39 40 41 42 43 44 45 46 47 48 49

000
ASUS43 KDMX 171007
RWRIA

WEATHER ROUNDUP FOR IOWA
NATIONAL WEATHER SERVICE DES MOINES IA
400 AM CST WED DEC 17 2014

NOTE: "FAIR" INDICATES FEW OR NO CLOUDS BELOW 12,000 FEET WITH NO
SIGNIFICANT WEATHER AND/OR OBSTRUCTIONS TO VISIBILITY.

* - THESE STATIONS ARE NOT NWS STATIONS...THUS NOT UNDER NWS
QUALITY CONTROL.  THEY ALSO DO NOT REPORT WEATHER SUCH
AS PRECIPITATION OR FOG.

IAZ001>003-012>014-020>022-031>034-043>046-171100-
   NORTHWEST IOWA

CITY           SKY/WX    TMP DP  RH WIND       PRES   REMARKS
CARROLL *      CLEAR     12   9  85 NW6       30.33F WCI   3
CHEROKEE *     PTCLDY    10   9  92 CALM      30.34F
DENISON *      CLEAR     12   9  85 CALM      30.32F
LE MARS *      CLEAR      9   7  92 CALM      30.36F
ORANGE CITY *  CLEAR      9   7  92 NW6       30.32F WCI  -1
SHELDON *      PTCLDY     7   3  85 W6        30.32F WCI  -3
SIOUX CITY     PTCLDY    13   8  81 N7        30.35F WCI   3
SPENCER        PTCLDY    10   5  80 NW7       30.32F WCI  -1
STORM LAKE *   CLEAR      9   5  85 W7        30.32F WCI  -3
$$

IAZ055>058-069>071-079>083-090>094-171100-
   SOUTHWEST IOWA

CITY           SKY/WX    TMP DP  RH WIND       PRES   REMARKS
ATLANTIC *     CLEAR     16  10  79 N6        30.35S WCI   7
AUDUBON *      CLEAR     12   7  79 NW3       30.33F
CLARINDA *     CLOUDY    19  16  86 N5        30.37F WCI  13
COUNCIL BLFS * CLOUDY    16  14  93 N6        30.33S WCI   7
CRESTON *      PTCLDY    16  12  86 N9        30.33S WCI   4
HARLAN  *      CLEAR     14  12  92 N5        30.38F WCI   6
LAMONI         CLOUDY    19  15  84 N10       30.32S WCI   7
RED OAK *      CLOUDY    18  14  86 N8        30.36F WCI   7
SHENANDOAH *   CLOUDY    19  14  79 N7        30.38S WCI  10
$$

IAZ047>049-059>061-072>074-084-171100-
   CENTRAL IOWA

CITY           SKY/WX    TMP DP  RH WIND       PRES   REMARKS
AMES           CLEAR     14   9  80 NW7       30.34S WCI   4
ANKENY *       CLOUDY    16  12  86 NW8       30.34S WCI   5
CHARITON *     CLOUDY    16  12  86 NW12      30.32F WCI   3
DES MOINES     FLURRIES  17  10  74 NW10      30.35S WCI   5
GRINNELL*      MOCLDY    18  14  86 W5        30.31S WCI  11
KNOXVILLE *    CLOUDY    16  10  79 NW9G15    30.32F WCI   4
MARSHALLTOWN   CLOUDY    15  12  88 NW12      30.31R WCI   2
PELLA *        CLOUDY    18  14  86 NW9       30.34F WCI   6
PERRY *          N/A     14  12  92 NW3       30.35S
$$

IAZ004>006-015-016-023>025-035-036-171100-
   NORTH CENTRAL IOWA

CITY           SKY/WX    TMP DP  RH WIND       PRES   REMARKS
ALGONA *       CLEAR     12  10  92 NW7       30.32S WCI   2
CLARION *      CLEAR     12  10  92 NW9       30.31F WCI   0
ESTHERVILLE    CLEAR     10   7  87 NW7       30.31S WCI  -1
FORT DODGE *   CLEAR     12   7  79 W3        30.33S
MASON CITY     MOCLDY    11   8  88 NW13      30.31R WCI  -4
FOREST CITY *  FLURRIES  12   9  85 NW9       30.29F WCI   0
IOWA FALLS *   FLURRIES  14  10  85 NW12      30.31S WCI   0
$$

IAZ007>011-017>019-026>030-037>042-050>054-066-171100-
   NORTHEAST IOWA

CITY           SKY/WX    TMP DP  RH WIND       PRES   REMARKS
CEDAR RAPIDS   CLOUDY    19  15  84 NW14      30.28S WCI   6
CHARLES CITY * FLURRIES  16  12  86 W10       30.29R WCI   3
CLINTON *      CLOUDY    21  16  79 NW13      30.29R WCI   9
DECORAH *      CLOUDY    19  16  86 VRB6      30.23S WCI  11
DUBUQUE        CLOUDY    22  16  78 NW13      30.23R WCI  10
MONTICELLO *   CLOUDY    23  18  80 NW10G16   30.27R WCI  12
OELWEIN *      CLOUDY    18  14  86 W12       30.27S WCI   5
WATERLOO       CLOUDY    16  12  84 NW14      30.29S WCI   2
$$

IAZ064-065-067-068-078-171100-
   EAST CENTRAL IOWA

CITY           SKY/WX    TMP DP  RH WIND       PRES   REMARKS
DAVENPORT      CLOUDY    21  14  74 NW12      30.28S WCI   9
IOWA CITY      CLOUDY    20  14  77 NW6       30.32S WCI  12
MT. PLEASANT * CLOUDY    18  14  86 W10       30.33S WCI   6
MUSCATINE *    CLOUDY    21  14  73 NW12      30.33S WCI   9
QUAD CITIES    CLOUDY    22  14  71 NW14G22   30.29R WCI   9
$$

IAZ062-063-075>077-085>089-095>099-171100-
   SOUTHEAST IOWA

CITY           SKY/WX    TMP DP  RH WIND       PRES   REMARKS
BURLINGTON     CLOUDY    19  14  81 NW9       30.31S WCI   8
FAIRFIELD *    CLOUDY    18  12  79 NW12      30.32F WCI   5
FORT MADISON * CLOUDY    21  18  86 W9        30.32F WCI  11
KEOKUK *       CLOUDY    21  18  86 NW9       30.31F WCI  11
OSKALOOSA *    CLOUDY    18  12  79 NW9       30.32F WCI   6
CENTERVILLE *  CLOUDY    19  18  93 NW7       30.32F WCI  10
OTTUMWA        CLOUDY    16  10  77 NW15      30.32F WCI   1
WASHINGTON *   CLOUDY    19  18  93 NW12      30.32S WCI   7
$$

ABBREVIATIONS USED IN REMARKS
   TC - TEMPERATURES IN CELSIUS
  WCI - WIND CHILL INDEX
   HX - HEAT INDEX
  VSB - VISIBILITY
$$




USA.gov is the U.S. government's official web portal to all federal, state and local government web resources and services.